Location: Crescent
(42.8242°N, 73.7329°W)
Time: 20:46:33
(UTC+00:00)

SR - Pass Details

Date: 18 February 2026
Orbit: 573 x 848 km, 66.7° (Epoch: 6 March)

Event Time Altitude Azimuth Distance (km) Brightness Sun altitude
Rises 18:03:52 0° 328° (NNW) 3,086 ? 34.3°
Reaches altitude 10° 18:06:08 10° 329° (NNW) 2,208 ? 34.2°
Maximum altitude 18:11:12 89° 239° (WSW) 766 ? 33.9°
Drops below altitude 10° 18:16:40 10° 151° (SSE) 2,368 ? 33.6°
Sets 18:19:10 0° 151° (SSE) 3,327 ? 33.4°
